loading
|

OV1-14 R/B, 3177

Orbit data source: Space-Track

OV1-14 R/B, 3177 is space debris in HEO originally from a launch on Sat, 06 Apr 1968 UTC launched from the Air Force Western Test Range (AFWTR). Debris objects in space refer to the collection of defunct objects orbiting the Earth. Examples of debris include non-operational satellites, rocket bodies, and fragments generated from explosions, collisions, or faulty payload assembly.

Loading next visibility...
Next conjunction unknown
Loading greatness...
OV1-14 R/B details
Identifier
3177, 1968-026C
Orbit
HEO
Last TLE update13 hours ago
Origin
Flag of USUSAF OAR (US)
ManufacturerUTC
MissionSpacecraft
Bus & MotorFW4, Unknown motor
Mass125 kg wet, 125 kg dry
Launch date (UTC)
1968-04-06 (57 years ago)
Launch vehicleUnknown
Launch site
Air Force Western Test Range (AFWTR)
Object type
Payload
Rocket body
Debris
Shape & HBRCyl, 2.05 m
Radar Cross Section1.363 m², Medium (>0.1 m² and < 1m²)

Expand to show TLE details & history

TLE from 13 hours ago
0 OV1-14 R/B
1 03177U 68026C   24285.48958093  .00001053  00000-0  17256-2 0  9999
2 03177  99.9887 183.1643 4002400  17.9958  13.1379  6.97745513434388
Epoch: 2024-10-11T11:44Z
Definitive object data (Epoch: 2024-10-11T11:44:59.792Z)
Latitude49.51291°
Longitude-25.48321°
Altitude890.939 km
Speed8.683 km/s
True Right ascension11h 25m 17s
True Declination49° 20' 46"
Sunlit
Object was in daylight at TLE epoch
Predictive object data (real-time)
Latitude-79.5321°
Longitude94.7159°
Altitude4,979.563 km
Speed5.987 km/s
Apparent Right ascension06h 58m 29s
Apparent Declination-79° 25' 43"
Sunlit
Object is in daylight
Predictive observer data (real-time)
Local Sidereal Time19:10:06
Azimuth179.162° S
Elevation-50.471°
Doppler factor1
Orbital elements
Apogee9,817.154 km
Perigee558.736 km
Semi-major axis11,566.082 km
Eccentricity0.40024
Inclination99.9887°
RAAN183.1643°
Arg. of periapsis17.9958°
True anomaly32.45303°
Mean anomaly13.1379°
Eccentric anomaly21.56775°
Mean motion1.74487 °/min
BSTAR0.0017256
Period206.32 mins
No data available
No data available
Other satellites on launch #26 in the year 1968 (1968-04-06 UTC)

OV1-14 R/B Visibility forecast

Observer location: 39.9160978°, -105.1181434

Span
Click to sort rows by Start time (UTC) header in descending order
Start Az.
Max El. time (UTC)
Max El. Az.
Max El.
End time (UTC)
End Az.
35 mins2024-10-12 02:04:12.636Z62.7° ENE2024-10-12 02:19:12.636Z89.616° E13.117°2024-10-12 02:39:12.636Z115.559° SE
75 mins2024-10-12 05:15:12.636Z20.562° NNE2024-10-12 05:36:12.636Z111.47° ESE43.541°2024-10-12 06:30:12.636Z195.228° SSW
46 mins2024-10-12 08:40:12.636Z355.973° N2024-10-12 08:53:12.636Z303.366° NW31.625°2024-10-12 09:26:12.636Z252.716° W